Hundvaag 1 weather for Dec 1997
Month no. 126
Obs.
Da.
Temp. Dew Point Precip. Wind
Speed
Wind gusts Cloud cover Press. Humidity Wind dir. Sunny OPT
01.12.1997 -0,8   0,0     10       1  
02.12.1997 -0,7   0,0     10       1  
03.12.1997 -1,0   0,0     10       1  
04.12.1997 0,9   11,0     0          
05.12.1997 2,6   0,0     1          
06.12.1997 7,5   33,0     0          
07.12.1997 7,3   3,0     0          
08.12.1997 7,8   0,0     0          
09.12.1997 8,6   9,0     2          
10.12.1997 7,3   11,0     0          
11.12.1997 6,2   4,0     3          
12.12.1997 2,1   0,0     10       1  
13.12.1997 4,3   2,0     0          
14.12.1997 -0,5   7,0     10       1  
15.12.1997 -3,0   0,0     8       1  
16.12.1997 0,9   0,0     7       1  
17.12.1997 -1,4   0,0     10       1  
18.12.1997 -0,8   0,0     10       1  
19.12.1997 -1,8   0,0     10       1  
20.12.1997 3,6   1,0     0          
21.12.1997 3,8   6,0     0          
22.12.1997 3,7   7,0     0          
23.12.1997 4,2   0,0     0          
24.12.1997 4,2   2,0     1          
25.12.1997 5,3   0,0     0          
26.12.1997 4,2   9,0     0          
27.12.1997 2,8   5,0     2       1  
28.12.1997 3,8   3,0     8       1  
29.12.1997 0,6   3,0     10       1  
30.12.1997 4,3   0,0     2          
31.12.1997 7,8   1,0     0          
Avrg/Sum 3,0   117,0     4,0       13